BEIDOU-3 M14 (C33)

Last updated on Thu Oct 16 2025 00:03:24 GMT+0000 (Coordinated Universal Time)

1 43623U 18072B 25287.47581111 .00000001 00000+0 00000+0 0 9997 2 43623 56.4103 70.7754 0002807 12.1761 347.8291 1.86230741 48079
UTC large
Height (km)
Speed (km/s)
/
Latitude / Longitude
Inclination (degrees)
Orbital Period (minutes)
Azimuth
Elevation
Range (km)
Doppler Factor

Next 0 passes for location: London (51.5072 / 0.1276)

Sorry there are no passes over London.